Weather History for Lander, WY

Change the Weather History Date:

Sunday, June 16, 2013

  Actual Average Record
Temperature  
Mean Temperature 67 °F 63 °F  
Max Temperature 87 °F 78 °F 95 °F (1940)
Min Temperature 46 °F 49 °F 33 °F (1945)
Degree Days  
Heating Degree Days 0 4  
Month to date heating degree days 48 92  
Since 1 June heating degree days 48 92  
Since 1 July heating degree days 7422 7714  
Cooling Degree Days 2 2  
Month to date cooling degree days 36 21  
Year to date cooling degree days 45 26  
Since 1 June cooling degree days 36 21  
Growing Degree Days 18 (Base 50)    
Moisture  
Dew Point 27 °F    
Average Humidity 25    
Maximum Humidity 41    
Minimum Humidity 8    
Precipitation  
Precipitation 0.00 in 0.05 in 1.73 in (1993)
Month to date precipitation 0.00 0.87  
Year to date precipitation 7.52 7.09  
Snow  
Snow 0.00 in 0.00 in - ()
Month to date snowfall 0.0 0.1  
Since 1 June snowfall 0.0 0.1  
Since 1 July snowfall 111.1 91.4  
Snow Depth 0.00 in    
Sea Level Pressure  
Sea Level Pressure 29.90 in    
Wind  
Wind Speed 6 mph (North)    
Max Wind Speed 22 mph    
Max Gust Speed 29 mph    
Visibility 10 miles    
Events      
T = Trace of Precipitation, MM = Missing Value Source: NWS Daily Summary

Daily Weather History Graph

Daily Weather History Graph

Search for Another Location

Airport:

Trip Planner

Search our weather history database for the weather conditions in past years. The results will help you decide how hot, cold, wet, or windy it might be!

Date:

Astronomy

Jun. 16, 2013 Rise Set
Actual Time 5:35 AM MDT 8:55 PM MDT
Civil Twilight 5:00 AM MDT 9:30 PM MDT
Nautical Twilight 4:15 AM MDT 10:16 PM MDT
Astronomical Twilight 3:18 AM MDT 11:12 PM MDT
Moon 1:25 PM MDT (6/16) 12:52 AM MDT (6/16)
Length of Visible Light 16h 30m
Length of Day
15h 19m
Waxing Crescent, 50% of the Moon is Illuminated
Jun 16
Waxing Crescent
Jun 23
Full
Jun 29
Last Quarter
Jul 8
New
Jul 15
First Quarter

Hourly Weather History & Observations

Time (MDT) Temp. Dew Point Humidity Pressure Visibility Wind Dir Wind Speed Gust Speed Precip Events Conditions
1:53 AM 57.9 °F 24.1 °F 27% 29.90 in 10.0 mi Calm Calm - N/A   Clear
2:53 AM 55.9 °F 25.0 °F 30% 29.91 in 10.0 mi Calm Calm - N/A   Clear
3:53 AM 55.9 °F 23.0 °F 28% 29.92 in 10.0 mi WNW 10.4 mph - N/A   Clear
4:53 AM 55.9 °F 19.9 °F 25% 29.92 in 10.0 mi WSW 9.2 mph - N/A   Clear
5:53 AM 52.0 °F 24.1 °F 34% 29.96 in 10.0 mi Calm Calm - N/A   Clear
6:53 AM 51.1 °F 28.0 °F 41% 29.96 in 10.0 mi SSE 3.5 mph - N/A   Clear
7:53 AM 57.9 °F 28.0 °F 32% 29.95 in 10.0 mi Calm Calm - N/A   Clear
8:53 AM 64.0 °F 36.0 °F 35% 29.96 in 10.0 mi SE 3.5 mph - N/A   Clear
9:53 AM 69.1 °F 32.0 °F 25% 29.96 in 10.0 mi Variable 3.5 mph - N/A   Clear
10:53 AM 72.0 °F 30.9 °F 22% 29.94 in 10.0 mi ESE 3.5 mph - N/A   Clear
11:53 AM 77.0 °F 28.9 °F 17% 29.92 in 10.0 mi East 5.8 mph - N/A   Clear
12:53 PM 80.1 °F 28.9 °F 15% 29.90 in 10.0 mi NNW 9.2 mph - N/A   Clear
1:53 PM 81.0 °F 28.9 °F 15% 29.86 in 10.0 mi Variable 6.9 mph - N/A   Clear
2:53 PM 84.0 °F 26.1 °F 12% 29.83 in 10.0 mi Variable 3.5 mph - N/A   Clear
3:53 PM 86.0 °F 19.9 °F 9% 29.81 in 10.0 mi NNE 9.2 mph - N/A   Clear
4:53 PM 82.0 °F 19.0 °F 10% 29.81 in 10.0 mi WNW 4.6 mph - N/A   Clear
5:53 PM 82.0 °F 21.9 °F 11% 29.82 in 10.0 mi NNW 11.5 mph 18.4 mph N/A   Clear
6:53 PM 77.0 °F 30.0 °F 18% 29.86 in 10.0 mi North 8.1 mph - N/A   Clear
7:53 PM 75.0 °F 30.9 °F 20% 29.86 in 10.0 mi West 6.9 mph - N/A   Clear
8:53 PM 75.0 °F 27.0 °F 17% 29.88 in 10.0 mi North 8.1 mph - N/A   Clear
9:53 PM 72.0 °F 28.9 °F 20% 29.92 in 10.0 mi NNE 11.5 mph - N/A   Clear
10:53 PM 68.0 °F 33.1 °F 27% 29.94 in 10.0 mi NNE 12.7 mph 20.7 mph N/A   Clear
11:53 PM 66.0 °F 36.0 °F 33% 29.96 in 10.0 mi ENE 6.9 mph - N/A   Overcast